[[{"header":{"parameterUnit":"m.s-1","parameterCategory":2,"la1":30.2991,"la2":30.254,"lo1":-89.0895,"lo2":-89.0444,"dy":0.0017,"dx":0.0017,"nx":28,"ny":28,"refTime":"2024-02-17T03:00:00:Z","depth":"0","parameterNumber":2,"parameterNumberName":"U-component_of_CURRENTS"},"data":[0,0,0,0,0,0,0,0,0,0,0,0,0,0,0,0,0,0,0,0,0,0,0,0,0,0,0,0,0,0,0,0,0,0,0,0,0,0,0,0,0,0,0,0,0,0,0,0,0,0,0,0,0,0,0,0,0,0,-0.1724,-0.1724,0,-0.171,-0.1709,-0.1709,-0.1699,-0.1699,-0.1699,-0.1699,-0.1699,-0.1699,-0.1699,0,0,0,0,0,0,0,0,0,0,0,0,0,-0.173,-0.173,-0.1724,-0.1724,-0.1724,-0.171,-0.1709,-0.1709,-0.1699,-0.1699,-0.1699,-0.1699,-0.1699,-0.1699,-0.1699,0,0,0,0,0,0,0,0,0,0,0,0,0,-0.1722,-0.173,-0.1724,-0.1718,-0.1717,-0.171,-0.1709,-0.1709,-0.1699,-0.1699,-0.1699,-0.1699,-0.1699,-0.1699,-0.1699,-0.1697,0,0,-0.1699,-0.1699,0,0,0,0,0,0,0,0,-0.1722,-0.1721,-0.1719,-0.1718,-0.1718,-0.1707,-0.1712,-0.1706,-0.1699,-0.1704,-0.1699,-0.1699,-0.1704,-0.1704,-0.1699,-0.1697,-0.1697,-0.1699,-0.1699,-0.1699,-0.1699,0,0,0,0,0,0,0,-0.1723,-0.1722,-0.1717,-0.1719,-0.1718,-0.1712,-0.1711,-0.1711,-0.1703,-0.1704,-0.1703,-0.1704,-0.1704,-0.1699,-0.1699,-0.1697,-0.1699,-0.1699,-0.1699,-0.1699,-0.1686,-0.1685,0,0,0,0,0,0,-0.1728,-0.1722,-0.1717,-0.1716,-0.1722,-0.1712,-0.1711,-0.1709,-0.1703,-0.1702,-0.1704,-0.1704,-0.1699,-0.1699,-0.1699,-0.1689,-0.1699,-0.1699,-0.1699,-0.1686,-0.1686,-0.1685,0,0,0,0,0,0,-0.1728,-0.1728,-0.1718,-0.172,-0.1719,-0.1712,-0.1711,-0.1709,-0.1704,-0.1703,-0.1702,-0.1701,-0.1699,-0.1699,-0.1691,-0.169,-0.1699,-0.1699,-0.1686,-0.1686,-0.1685,-0.1676,0,0,0,0,0,0,-0.1728,-0.1728,-0.1726,-0.1721,-0.1719,-0.1713,-0.1711,-0.1709,-0.1706,-0.1705,-0.1701,-0.1701,-0.1699,-0.1691,-0.1691,-0.169,-0.1699,-0.1687,-0.1686,-0.1685,-0.1676,-0.1675,-0.1674,0,0,0,0,0,-0.1729,-0.1728,-0.1726,-0.1725,-0.1718,-0.1713,-0.1712,-0.1706,-0.1706,-0.1702,-0.1695,-0.1701,-0.1688,-0.1691,-0.1691,-0.1689,-0.1687,-0.1686,-0.1686,-0.1677,-0.1675,-0.1674,0,0,0,0,0,0,-0.1731,-0.1726,-0.1725,-0.1723,-0.1719,-0.1712,-0.1709,-0.1707,-0.1698,-0.1697,-0.1695,-0.1694,-0.1687,-0.1689,-0.1692,-0.1683,-0.1689,-0.1688,-0.1683,-0.1681,-0.168,-0.1679,-0.1699,0,0,0,0,0,-0.1731,-0.1726,-0.1724,-0.1721,-0.172,-0.1715,-0.1712,-0.1709,-0.1703,-0.1699,-0.1693,-0.1689,-0.1684,-0.1683,-0.1678,-0.1674,-0.1673,-0.1674,-0.1672,-0.1671,-0.167,-0.1661,-0.1659,-0.1683,-0.1683,-0.1683,0,0,-0.1729,-0.1727,-0.1724,-0.1721,-0.1716,-0.1713,-0.1712,-0.1709,-0.1703,-0.1701,-0.1688,-0.1684,-0.1681,-0.1673,-0.1671,-0.1675,-0.1663,-0.167,-0.1669,-0.1669,-0.166,-0.1658,-0.1656,-0.1682,-0.1682,-0.1683,0,0,-0.1726,-0.1724,-0.1719,-0.1717,-0.1714,-0.1711,-0.1711,-0.1704,-0.1698,-0.1688,-0.1683,-0.1674,-0.1669,-0.1662,-0.1661,-0.165,-0.1655,-0.1653,-0.1647,-0.1638,-0.1636,-0.1634,-0.163,-0.1628,-0.1653,-0.1653,-0.1653,0,-0.1726,-0.1717,-0.1718,-0.1714,-0.171,-0.1711,-0.1706,-0.1702,-0.1691,-0.1684,-0.1684,-0.1665,-0.1663,-0.1653,-0.1647,-0.1647,-0.1645,-0.1654,-0.1636,-0.1635,-0.1633,-0.1629,-0.1627,-0.1653,-0.1653,-0.1653,-0.1653,0,-0.1717,-0.1711,-0.1709,-0.1703,-0.1702,-0.1696,-0.1695,-0.1688,-0.1683,-0.1677,-0.1663,-0.1654,-0.1643,-0.1643,-0.1642,-0.163,-0.1633,-0.1635,-0.1641,-0.163,-0.1626,-0.1624,-0.1652,-0.1652,-0.1652,-0.1653,0,0,-0.1711,-0.1704,-0.1701,-0.1694,-0.1693,-0.1689,-0.1685,-0.1676,-0.1669,-0.166,-0.1647,-0.1636,-0.1631,-0.1628,-0.1626,-0.1619,-0.1605,-0.1622,-0.1622,-0.1619,-0.1588,-0.1619,-0.1619,-0.1604,-0.1604,-0.1604,-0.1591,0,-0.17,-0.1687,-0.169,-0.1676,-0.1666,-0.167,-0.1664,-0.166,-0.1655,-0.1644,-0.1638,-0.1626,-0.1627,-0.162,-0.1613,-0.1608,-0.1599,-0.1608,-0.1599,-0.1599,-0.1628,-0.1618,-0.1592,-0.1581,-0.1589,-0.1588,-0.1588,0,-0.1686,-0.1677,-0.166,-0.1651,-0.1649,-0.1644,-0.1634,-0.163,-0.1626,-0.1623,-0.1615,-0.1613,-0.1602,-0.1604,-0.1589,-0.1596,-0.1589,-0.1586,-0.1585,-0.1616,-0.1625,-0.1593,-0.1577,-0.1602,-0.1585,-0.1585,-0.1585,0,-0.1662,-0.1656,-0.1638,-0.1634,-0.1627,-0.162,-0.1619,-0.1617,-0.1611,-0.1607,-0.1605,-0.1596,-0.1593,-0.1581,-0.1586,-0.1582,-0.1576,-0.1568,-0.1587,-0.1589,-0.1566,-0.1568,-0.1574,-0.155,-0.1551,-0.1551,-0.1551,0,-0.1636,-0.1622,-0.1623,-0.1607,-0.1591,-0.1598,-0.1581,-0.1584,-0.1584,-0.1581,-0.1589,-0.1592,-0.1587,-0.1591,-0.1583,-0.1589,-0.1573,-0.1585,-0.1587,-0.1563,-0.1565,-0.1586,-0.1527,-0.155,-0.155,-0.155,-0.155,0,-0.1602,-0.1601,-0.1583,-0.1576,-0.1573,-0.1561,-0.1557,-0.1544,-0.1558,-0.1557,-0.1556,-0.1582,-0.1591,-0.1593,-0.1585,-0.1593,-0.1554,-0.1594,-0.1574,-0.1575,-0.1616,-0.1555,-0.1437,-0.1409,-0.1601,-0.1601,-0.1602,0,-0.1579,-0.1563,-0.1558,-0.1544,-0.1536,-0.1522,-0.1507,-0.1521,-0.1516,-0.1555,-0.1553,-0.1577,-0.1604,-0.1621,-0.1621,-0.1618,-0.156,-0.1598,-0.1584,-0.1619,-0.1551,-0.1464,-0.1442,-0.1544,-0.1544,-0.1544,-0.1544,0,-0.1529,-0.1532,-0.1514,-0.1495,-0.1477,-0.1463,-0.1452,-0.1454,-0.1479,-0.1511,-0.156,-0.1596,-0.1624,-0.1645,-0.1656,-0.1631,-0.1537,-0.16,-0.1627,-0.15,-0.1407,-0.1383,-0.156,-0.1544,-0.1544,-0.1544,-0.1544,-0.1544,-0.1491,-0.1473,-0.1454,-0.1429,-0.1415,-0.1399,-0.1377,-0.1407,-0.1431,-0.1497,-0.1561,-0.1645,-0.1679,-0.1698,-0.1705,-0.1665,-0.1542,-0.1613,-0.1533,-0.1444,-0.1417,-0.161,-0.1609,-0.161,-0.161,-0.161,-0.161,0,-0.1427,-0.1405,-0.1386,-0.1351,-0.1317,-0.1332,-0.1327,-0.132,-0.136,-0.1501,-0.1583,-0.171,-0.1742,-0.1759,-0.1719,-0.1648,-0.1562,-0.1556,-0.1427,-0.1409,-0.1594,-0.1602,-0.1609,-0.1609,-0.1609,-0.1609,-0.1609,-0.1609,-0.1387,-0.1338,-0.1325,-0.1248,-0.123,-0.1174,-0.1165,-0.1208,-0.1294,-0.1469,-0.1608,-0.1734,-0.1755,-0.1685,-0.1642,-0.1592,-0.1489,-0.1352,-0.1345,-0.1503,-0.1503,-0.1503,-0.1506,-0.1493,-0.1492,-0.1176,-0.1173,-0.1171]},{"header":{"parameterUnit":"m.s-1","parameterCategory":2,"la1":30.2991,"la2":30.254,"lo1":-89.0895,"lo2":-89.0444,"dy":0.0017,"dx":0.0017,"nx":28,"ny":28,"refTime":"2024-02-17T03:00:00:Z","depth":"0","parameterNumber":3,"parameterNumberName":"V-component_of_CURRENTS"},"data":[0,0,0,0,0,0,0,0,0,0,0,0,0,0,0,0,0,0,0,0,0,0,0,0,0,0,0,0,0,0,0,0,0,0,0,0,0,0,0,0,0,0,0,0,0,0,0,0,0,0,0,0,0,0,0,0,0,0,-0.074,-0.0739,0,-0.0706,-0.0706,-0.0705,-0.0683,-0.0683,-0.0683,-0.0682,-0.0629,-0.0627,-0.0626,0,0,0,0,0,0,0,0,0,0,0,0,0,-0.0759,-0.0759,-0.074,-0.0739,-0.0739,-0.0706,-0.0706,-0.0705,-0.0683,-0.0683,-0.0683,-0.0682,-0.0629,-0.0627,-0.0626,0,0,0,0,0,0,0,0,0,0,0,0,0,-0.074,-0.0759,-0.074,-0.0724,-0.0723,-0.0706,-0.0706,-0.0705,-0.0683,-0.0683,-0.0683,-0.0682,-0.063,-0.0628,-0.0626,-0.0616,0,0,-0.062,-0.0619,0,0,0,0,0,0,0,0,-0.0741,-0.0739,-0.0727,-0.0725,-0.0723,-0.0699,-0.0693,-0.0675,-0.0683,-0.0697,-0.0682,-0.0682,-0.0651,-0.0647,-0.0641,-0.0614,-0.0612,-0.0619,-0.0618,-0.0617,-0.0617,0,0,0,0,0,0,0,-0.0742,-0.074,-0.0726,-0.0726,-0.0724,-0.071,-0.0708,-0.0689,-0.0674,-0.0696,-0.0694,-0.0692,-0.065,-0.0643,-0.0639,-0.0611,-0.0619,-0.0618,-0.0616,-0.0616,-0.0586,-0.0586,0,0,0,0,0,0,-0.0749,-0.0742,-0.0727,-0.0725,-0.0733,-0.071,-0.0707,-0.0707,-0.0675,-0.067,-0.0692,-0.0691,-0.0646,-0.0641,-0.0637,-0.0627,-0.0617,-0.0615,-0.0614,-0.0585,-0.0586,-0.0586,0,0,0,0,0,0,-0.075,-0.0748,-0.0728,-0.0733,-0.0729,-0.071,-0.071,-0.0706,-0.0699,-0.0672,-0.0667,-0.0689,-0.0646,-0.064,-0.0626,-0.0624,-0.0615,-0.0613,-0.0585,-0.0585,-0.0586,-0.0605,0,0,0,0,0,0,-0.0751,-0.0749,-0.0751,-0.0733,-0.0729,-0.072,-0.071,-0.0705,-0.0698,-0.0696,-0.0668,-0.0663,-0.0645,-0.0629,-0.0624,-0.0622,-0.0611,-0.0584,-0.0585,-0.0586,-0.0603,-0.0606,-0.0608,0,0,0,0,0,-0.0751,-0.0753,-0.0751,-0.0749,-0.0733,-0.072,-0.0717,-0.0702,-0.0698,-0.0695,-0.0681,-0.0664,-0.063,-0.0628,-0.0622,-0.0619,-0.0584,-0.0585,-0.0586,-0.0603,-0.0605,-0.0608,0,0,0,0,0,0,-0.0759,-0.0751,-0.0748,-0.0746,-0.0736,-0.0717,-0.0713,-0.0704,-0.0691,-0.069,-0.0666,-0.066,-0.0648,-0.0634,-0.0632,-0.0614,-0.0605,-0.0605,-0.062,-0.0623,-0.0625,-0.0627,-0.0609,0,0,0,0,0,-0.0764,-0.0765,-0.0752,-0.0751,-0.0747,-0.0732,-0.0725,-0.0716,-0.0702,-0.0696,-0.0677,-0.066,-0.0647,-0.0636,-0.0621,-0.0609,-0.0605,-0.0605,-0.0607,-0.0609,-0.0607,-0.0603,-0.0604,-0.0589,-0.0589,-0.0589,0,0,-0.0766,-0.0762,-0.0761,-0.0753,-0.0744,-0.0739,-0.0727,-0.0719,-0.0714,-0.0692,-0.0679,-0.0666,-0.0647,-0.0635,-0.0628,-0.0621,-0.0615,-0.061,-0.0612,-0.0609,-0.0604,-0.0606,-0.0607,-0.059,-0.0589,-0.0589,0,0,-0.0771,-0.0768,-0.0771,-0.0765,-0.0755,-0.0745,-0.0745,-0.0728,-0.072,-0.0708,-0.0694,-0.0683,-0.0658,-0.0644,-0.0635,-0.064,-0.0628,-0.0637,-0.0644,-0.064,-0.0641,-0.0642,-0.0653,-0.0655,-0.0635,-0.0635,-0.0636,0,-0.0774,-0.0777,-0.0769,-0.0769,-0.0765,-0.075,-0.075,-0.0739,-0.072,-0.0714,-0.0708,-0.068,-0.0662,-0.0649,-0.0651,-0.0644,-0.0646,-0.0634,-0.0642,-0.0643,-0.0643,-0.0654,-0.0656,-0.0636,-0.0636,-0.0636,-0.0636,0,-0.0781,-0.0783,-0.0783,-0.0781,-0.0775,-0.0771,-0.0758,-0.0751,-0.0741,-0.0729,-0.0716,-0.0695,-0.0679,-0.0672,-0.066,-0.0655,-0.0659,-0.0647,-0.0635,-0.0646,-0.0657,-0.0659,-0.0638,-0.0638,-0.0637,-0.0637,0,0,-0.079,-0.0789,-0.0789,-0.0793,-0.0781,-0.0779,-0.0771,-0.0761,-0.076,-0.0739,-0.0736,-0.071,-0.07,-0.0689,-0.0674,-0.0667,-0.0675,-0.0659,-0.0658,-0.0669,-0.0679,-0.0663,-0.0663,-0.0664,-0.0664,-0.0664,-0.0691,0,-0.0798,-0.0805,-0.08,-0.0804,-0.0807,-0.0794,-0.0789,-0.0778,-0.0766,-0.0759,-0.0737,-0.0727,-0.0706,-0.0702,-0.069,-0.0677,-0.0677,-0.0669,-0.0668,-0.0668,-0.065,-0.0663,-0.0714,-0.0739,-0.0692,-0.0692,-0.0692,0,-0.0808,-0.0812,-0.082,-0.0822,-0.0822,-0.0822,-0.0818,-0.081,-0.0794,-0.0786,-0.077,-0.0754,-0.0738,-0.0722,-0.0704,-0.0701,-0.0693,-0.0684,-0.0684,-0.066,-0.0653,-0.0718,-0.0743,-0.083,-0.0694,-0.0694,-0.0694,0,-0.0825,-0.0827,-0.0836,-0.0836,-0.0833,-0.0837,-0.0833,-0.082,-0.082,-0.0805,-0.0808,-0.0781,-0.0777,-0.0754,-0.0727,-0.0719,-0.0714,-0.0701,-0.0682,-0.0682,-0.072,-0.0722,-0.0825,-0.0695,-0.0695,-0.0695,-0.0695,0,-0.0839,-0.0845,-0.0847,-0.0853,-0.0867,-0.0855,-0.0865,-0.0858,-0.0851,-0.0862,-0.0826,-0.0837,-0.0785,-0.0772,-0.0743,-0.0718,-0.0728,-0.0687,-0.0684,-0.0729,-0.0731,-0.0802,-0.0813,-0.0696,-0.0696,-0.0695,-0.0695,0,-0.0858,-0.0856,-0.087,-0.0874,-0.0878,-0.0889,-0.0894,-0.0899,-0.0889,-0.0905,-0.0904,-0.0883,-0.0852,-0.08,-0.0768,-0.0746,-0.0752,-0.0709,-0.0769,-0.0771,-0.0814,-0.0822,-0.0837,-0.0882,-0.0692,-0.0692,-0.0692,0,-0.0868,-0.0878,-0.0895,-0.0906,-0.0911,-0.0922,-0.0931,-0.0922,-0.0934,-0.0943,-0.0961,-0.0929,-0.0938,-0.0874,-0.0781,-0.0721,-0.0756,-0.0757,-0.0738,-0.0829,-0.0837,-0.0816,-0.0852,-0.081,-0.0811,-0.0812,-0.0812,0,-0.0889,-0.0897,-0.0911,-0.0939,-0.0955,-0.097,-0.0986,-0.1005,-0.1004,-0.1036,-0.1078,-0.109,-0.0992,-0.0963,-0.0851,-0.0796,-0.0818,-0.0765,-0.0853,-0.0928,-0.0919,-0.0958,-0.0792,-0.0817,-0.0817,-0.0816,-0.0816,-0.0816,-0.0905,-0.0923,-0.0945,-0.0971,-0.0989,-0.1018,-0.1039,-0.1081,-0.1126,-0.1199,-0.1194,-0.1262,-0.1203,-0.1031,-0.098,-0.0908,-0.0819,-0.092,-0.0923,-0.0893,-0.0936,-0.0775,-0.0791,-0.0791,-0.079,-0.0789,-0.0789,0,-0.0921,-0.0944,-0.0973,-0.1005,-0.1031,-0.1032,-0.1073,-0.1108,-0.1193,-0.1309,-0.1377,-0.1444,-0.1418,-0.1325,-0.1187,-0.114,-0.1106,-0.1105,-0.1133,-0.1162,-0.1038,-0.1046,-0.1126,-0.1126,-0.1126,-0.1126,-0.1126,-0.1126,-0.0929,-0.0963,-0.0982,-0.1032,-0.1053,-0.1088,-0.1113,-0.1193,-0.1281,-0.1467,-0.158,-0.1635,-0.1565,-0.1475,-0.143,-0.1378,-0.1414,-0.1297,-0.1318,-0.1293,-0.1278,-0.1264,-0.1279,-0.1407,-0.1407,-0.148,-0.148,-0.1481]}],[{"header":{"parameterUnit":"m.s-1","parameterCategory":2,"la1":30.2991,"la2":30.254,"lo1":-89.0895,"lo2":-89.0444,"dy":0.0017,"dx":0.0017,"nx":28,"ny":28,"refTime":"2024-02-17T03:00:00:Z","depth":"2","parameterNumber":2,"parameterNumberName":"U-component_of_CURRENTS"},"data":[0,0,0,0,0,0,0,0,0,0,0,0,0,0,0,0,0,0,0,0,0,0,0,0,0,0,0,0,0,0,0,0,0,0,0,0,0,0,0,0,0,0,0,0,0,0,0,0,0,0,0,0,0,0,0,0,0,0,-0.1709,-0.1709,0,-0.1695,-0.1695,-0.1695,-0.1685,-0.1685,-0.1685,-0.1685,-0.1686,-0.1686,-0.1686,0,0,0,0,0,0,0,0,0,0,0,0,0,-0.1716,-0.1715,-0.1709,-0.1709,-0.1709,-0.1695,-0.1695,-0.1695,-0.1685,-0.1685,-0.1685,-0.1685,-0.1686,-0.1686,-0.1686,0,0,0,0,0,0,0,0,0,0,0,0,0,-0.1707,-0.1715,-0.1709,-0.1704,-0.1703,-0.1695,-0.1695,-0.1695,-0.1685,-0.1685,-0.1685,-0.1685,-0.1686,-0.1686,-0.1686,-0.1684,0,0,-0.1686,-0.1686,0,0,0,0,0,0,0,0,-0.1707,-0.1707,-0.1704,-0.1704,-0.1703,-0.1693,-0.1698,-0.1692,-0.1685,-0.169,-0.1685,-0.1685,-0.1691,-0.169,-0.1685,-0.1684,-0.1684,-0.1686,-0.1686,-0.1686,-0.1686,0,0,0,0,0,0,0,-0.1708,-0.1707,-0.1702,-0.1704,-0.1704,-0.1698,-0.1697,-0.1696,-0.1689,-0.169,-0.1689,-0.169,-0.169,-0.1685,-0.1685,-0.1684,-0.1686,-0.1686,-0.1686,-0.1686,-0.1673,-0.1673,0,0,0,0,0,0,-0.1713,-0.1708,-0.1702,-0.1702,-0.1707,-0.1698,-0.1697,-0.1695,-0.1689,-0.1688,-0.169,-0.169,-0.1685,-0.1685,-0.1685,-0.1677,-0.1686,-0.1686,-0.1686,-0.1673,-0.1673,-0.1673,0,0,0,0,0,0,-0.1713,-0.1713,-0.1703,-0.1706,-0.1704,-0.1698,-0.1696,-0.1695,-0.1691,-0.1689,-0.1689,-0.1688,-0.1685,-0.1685,-0.1678,-0.1677,-0.1686,-0.1686,-0.1674,-0.1673,-0.1673,-0.1663,0,0,0,0,0,0,-0.1714,-0.1713,-0.1711,-0.1706,-0.1704,-0.1699,-0.1696,-0.1695,-0.1692,-0.1691,-0.1687,-0.1687,-0.1685,-0.1678,-0.1678,-0.1677,-0.1686,-0.1674,-0.1673,-0.1673,-0.1664,-0.1663,-0.1662,0,0,0,0,0,-0.1714,-0.1713,-0.1711,-0.1711,-0.1703,-0.1699,-0.1697,-0.1692,-0.1692,-0.1689,-0.1682,-0.1687,-0.1675,-0.1678,-0.1678,-0.1677,-0.1674,-0.1674,-0.1673,-0.1665,-0.1663,-0.1662,0,0,0,0,0,0,-0.1716,-0.1712,-0.171,-0.1708,-0.1704,-0.1698,-0.1695,-0.1693,-0.1684,-0.1684,-0.1682,-0.1681,-0.1674,-0.1676,-0.1679,-0.1671,-0.1676,-0.1676,-0.167,-0.1669,-0.1667,-0.1666,-0.1686,0,0,0,0,0,-0.1716,-0.1711,-0.1709,-0.1706,-0.1706,-0.17,-0.1698,-0.1695,-0.1689,-0.1685,-0.168,-0.1676,-0.1671,-0.167,-0.1666,-0.1662,-0.166,-0.1661,-0.166,-0.1659,-0.1658,-0.1649,-0.1647,-0.167,-0.167,-0.167,0,0,-0.1715,-0.1713,-0.1709,-0.1706,-0.1702,-0.1699,-0.1698,-0.1695,-0.169,-0.1687,-0.1675,-0.1671,-0.1668,-0.166,-0.1658,-0.1662,-0.1651,-0.1658,-0.1657,-0.1657,-0.1648,-0.1646,-0.1644,-0.167,-0.167,-0.167,0,0,-0.1711,-0.171,-0.1705,-0.1703,-0.17,-0.1697,-0.1698,-0.1691,-0.1685,-0.1675,-0.167,-0.1662,-0.1657,-0.165,-0.1649,-0.1638,-0.1644,-0.1641,-0.1635,-0.1627,-0.1625,-0.1623,-0.1619,-0.1617,-0.1642,-0.1642,-0.1642,0,-0.1712,-0.1703,-0.1703,-0.17,-0.1696,-0.1697,-0.1692,-0.1688,-0.1678,-0.1671,-0.1671,-0.1653,-0.1651,-0.164,-0.1635,-0.1635,-0.1633,-0.1642,-0.1625,-0.1623,-0.1621,-0.1618,-0.1615,-0.1641,-0.1641,-0.1641,-0.1641,0,-0.1703,-0.1697,-0.1695,-0.1689,-0.1688,-0.1682,-0.1681,-0.1675,-0.167,-0.1664,-0.1651,-0.1642,-0.1632,-0.1631,-0.163,-0.1618,-0.1622,-0.1623,-0.1629,-0.1619,-0.1615,-0.1613,-0.164,-0.164,-0.1641,-0.1641,0,0,-0.1697,-0.169,-0.1687,-0.168,-0.1679,-0.1675,-0.1672,-0.1663,-0.1656,-0.1647,-0.1635,-0.1624,-0.162,-0.1617,-0.1614,-0.1608,-0.1594,-0.1611,-0.1611,-0.1608,-0.1578,-0.1605,-0.1606,-0.1594,-0.1593,-0.1593,-0.1581,0,-0.1686,-0.1673,-0.1676,-0.1662,-0.1653,-0.1656,-0.1651,-0.1647,-0.1643,-0.1632,-0.1626,-0.1614,-0.1615,-0.1609,-0.1602,-0.1597,-0.1588,-0.1597,-0.1588,-0.1588,-0.1614,-0.1604,-0.1439,-0.1417,-0.1579,-0.1578,-0.1578,0,-0.1672,-0.1663,-0.1646,-0.1638,-0.1636,-0.1631,-0.1621,-0.1618,-0.1613,-0.1611,-0.1604,-0.1602,-0.1591,-0.1593,-0.1579,-0.1586,-0.1579,-0.1576,-0.1575,-0.1603,-0.1611,-0.1454,-0.1407,-0.1575,-0.1575,-0.1575,-0.1576,0,-0.1649,-0.1642,-0.1625,-0.1621,-0.1614,-0.1607,-0.1606,-0.1604,-0.1599,-0.1595,-0.1594,-0.1585,-0.1583,-0.1571,-0.1576,-0.1572,-0.1567,-0.1559,-0.1575,-0.1576,-0.1436,-0.1427,-0.1541,-0.1541,-0.1541,-0.1541,-0.1541,0,-0.1623,-0.1609,-0.1611,-0.1594,-0.1579,-0.1586,-0.1569,-0.1572,-0.1573,-0.157,-0.1578,-0.1582,-0.1577,-0.1581,-0.1574,-0.1579,-0.1564,-0.1572,-0.1574,-0.143,-0.1421,-0.1559,-0.1561,-0.1541,-0.1541,-0.1541,-0.1541,0,-0.1589,-0.1588,-0.1571,-0.1564,-0.1561,-0.155,-0.1546,-0.1534,-0.1548,-0.1547,-0.1547,-0.1573,-0.1581,-0.1583,-0.1576,-0.1582,-0.1578,-0.1581,-0.1423,-0.1408,-0.1589,-0.1591,-0.1583,-0.1584,-0.1584,-0.1585,-0.1585,0,-0.1566,-0.1551,-0.1546,-0.1533,-0.1525,-0.1511,-0.1497,-0.1511,-0.1507,-0.1546,-0.1544,-0.1568,-0.1582,-0.1597,-0.1587,-0.1576,-0.1593,-0.1437,-0.1403,-0.159,-0.1593,-0.1593,-0.1594,-0.1201,-0.1198,-0.1196,-0.1194,0,-0.1517,-0.152,-0.1503,-0.1484,-0.1467,-0.1453,-0.1443,-0.1445,-0.147,-0.1486,-0.1536,-0.156,-0.158,-0.1498,-0.1493,-0.1475,-0.1427,-0.1397,-0.1601,-0.1244,-0.1236,-0.1238,-0.1249,-0.1174,-0.1176,-0.1178,-0.1179,-0.1179,-0.148,-0.1462,-0.1443,-0.1419,-0.1406,-0.1389,-0.1367,-0.1347,-0.1349,-0.1312,-0.1418,-0.1362,-0.1369,-0.1276,-0.126,-0.1263,-0.1381,-0.1283,-0.1286,-0.1292,-0.1279,-0.1275,-0.1217,-0.1219,-0.1221,-0.1223,-0.1224,0,-0.1406,-0.1395,-0.1376,-0.1342,-0.1297,-0.1323,-0.1318,-0.1257,-0.1213,-0.1168,-0.1141,-0.1024,-0.0946,-0.0979,-0.0966,-0.1025,-0.0983,-0.0968,-0.0857,-0.0879,-0.0898,-0.086,-0.0689,-0.0688,-0.0686,-0.0685,0,0,-0.1364,-0.1312,-0.1298,-0.1217,-0.1208,-0.1131,-0.1121,-0.1043,-0.0984,-0.0882,-0.0804,-0.0735,-0.0881,-0.0691,-0.0723,-0.0697,-0.077,-0.0673,-0.1099,-0.0983,-0.0999,-0.1082,-0.1051,0,0,0,0,0]},{"header":{"parameterUnit":"m.s-1","parameterCategory":2,"la1":30.2991,"la2":30.254,"lo1":-89.0895,"lo2":-89.0444,"dy":0.0017,"dx":0.0017,"nx":28,"ny":28,"refTime":"2024-02-17T03:00:00:Z","depth":"2","parameterNumber":3,"parameterNumberName":"V-component_of_CURRENTS"},"data":[0,0,0,0,0,0,0,0,0,0,0,0,0,0,0,0,0,0,0,0,0,0,0,0,0,0,0,0,0,0,0,0,0,0,0,0,0,0,0,0,0,0,0,0,0,0,0,0,0,0,0,0,0,0,0,0,0,0,-0.0684,-0.0684,0,-0.0651,-0.065,-0.065,-0.0628,-0.0628,-0.0628,-0.0628,-0.0574,-0.0573,-0.0572,0,0,0,0,0,0,0,0,0,0,0,0,0,-0.0703,-0.0703,-0.0684,-0.0684,-0.0683,-0.0651,-0.065,-0.065,-0.0628,-0.0628,-0.0628,-0.0628,-0.0575,-0.0573,-0.0572,0,0,0,0,0,0,0,0,0,0,0,0,0,-0.0684,-0.0703,-0.0684,-0.0669,-0.0668,-0.0651,-0.065,-0.065,-0.0628,-0.0628,-0.0628,-0.0628,-0.0575,-0.0573,-0.0571,-0.0561,0,0,-0.0565,-0.0564,0,0,0,0,0,0,0,0,-0.0686,-0.0684,-0.0672,-0.067,-0.0668,-0.0644,-0.0637,-0.0619,-0.0628,-0.0643,-0.0628,-0.0628,-0.0596,-0.0593,-0.0586,-0.0559,-0.0556,-0.0565,-0.0564,-0.0563,-0.0562,0,0,0,0,0,0,0,-0.0687,-0.0685,-0.067,-0.0671,-0.0669,-0.0655,-0.0653,-0.0634,-0.062,-0.0641,-0.064,-0.0637,-0.0595,-0.0588,-0.0584,-0.0555,-0.0565,-0.0563,-0.0562,-0.0561,-0.053,-0.053,0,0,0,0,0,0,-0.0694,-0.0686,-0.0671,-0.0669,-0.0678,-0.0655,-0.0652,-0.0652,-0.062,-0.0616,-0.0637,-0.0636,-0.0591,-0.0587,-0.0582,-0.0572,-0.0563,-0.0561,-0.056,-0.053,-0.053,-0.0531,0,0,0,0,0,0,-0.0694,-0.0693,-0.0673,-0.0677,-0.0674,-0.0655,-0.0654,-0.0651,-0.0644,-0.0618,-0.0612,-0.0635,-0.0591,-0.0585,-0.0571,-0.057,-0.056,-0.0558,-0.0529,-0.053,-0.053,-0.055,0,0,0,0,0,0,-0.0695,-0.0693,-0.0696,-0.0678,-0.0674,-0.0664,-0.0655,-0.065,-0.0643,-0.0642,-0.0614,-0.0608,-0.0591,-0.0575,-0.057,-0.0567,-0.0557,-0.0529,-0.053,-0.053,-0.0549,-0.0551,-0.0553,0,0,0,0,0,-0.0696,-0.0698,-0.0696,-0.0694,-0.0678,-0.0665,-0.0661,-0.0647,-0.0643,-0.0641,-0.0626,-0.0609,-0.0576,-0.0573,-0.0567,-0.0564,-0.0528,-0.0529,-0.053,-0.0548,-0.0551,-0.0553,0,0,0,0,0,0,-0.0704,-0.0695,-0.0693,-0.0691,-0.0681,-0.0661,-0.0658,-0.065,-0.0636,-0.0636,-0.0612,-0.0605,-0.0594,-0.0579,-0.0577,-0.0559,-0.055,-0.055,-0.0566,-0.0568,-0.057,-0.0572,-0.0555,0,0,0,0,0,-0.0709,-0.071,-0.0697,-0.0696,-0.0692,-0.0677,-0.067,-0.0662,-0.0648,-0.0641,-0.0622,-0.0606,-0.0592,-0.0581,-0.0567,-0.0554,-0.055,-0.055,-0.0552,-0.0554,-0.0552,-0.0548,-0.0549,-0.0534,-0.0534,-0.0534,0,0,-0.0711,-0.0707,-0.0707,-0.0698,-0.0689,-0.0684,-0.0672,-0.0665,-0.0659,-0.0637,-0.0625,-0.0612,-0.0592,-0.058,-0.0573,-0.0567,-0.056,-0.0555,-0.0557,-0.0554,-0.0549,-0.055,-0.0552,-0.0534,-0.0534,-0.0534,0,0,-0.0717,-0.0714,-0.0717,-0.071,-0.0701,-0.0691,-0.0691,-0.0674,-0.0666,-0.0655,-0.064,-0.0629,-0.0604,-0.059,-0.058,-0.0586,-0.0573,-0.0582,-0.0589,-0.0585,-0.0586,-0.0587,-0.0599,-0.06,-0.0581,-0.0581,-0.0581,0,-0.072,-0.0722,-0.0715,-0.0715,-0.0711,-0.0696,-0.0696,-0.0685,-0.0665,-0.066,-0.0654,-0.0626,-0.0608,-0.0595,-0.0596,-0.0589,-0.0591,-0.058,-0.0587,-0.0588,-0.0589,-0.06,-0.0602,-0.0582,-0.0582,-0.0582,-0.0582,0,-0.0727,-0.0728,-0.0729,-0.0726,-0.0721,-0.0717,-0.0704,-0.0697,-0.0687,-0.0675,-0.0662,-0.0641,-0.0625,-0.0618,-0.0606,-0.0601,-0.0605,-0.0593,-0.058,-0.0591,-0.0603,-0.0604,-0.0583,-0.0583,-0.0583,-0.0582,0,0,-0.0736,-0.0735,-0.0735,-0.0738,-0.0727,-0.0724,-0.0717,-0.0706,-0.0705,-0.0685,-0.0681,-0.0655,-0.0646,-0.0635,-0.062,-0.0612,-0.0621,-0.0605,-0.0604,-0.0615,-0.0626,-0.0604,-0.0603,-0.061,-0.061,-0.061,-0.0638,0,-0.0744,-0.0751,-0.0746,-0.075,-0.0752,-0.0739,-0.0734,-0.0723,-0.0711,-0.0704,-0.0682,-0.0672,-0.0652,-0.0648,-0.0636,-0.0623,-0.0623,-0.0615,-0.0614,-0.0614,-0.0591,-0.0603,-0.0487,-0.0499,-0.0639,-0.0639,-0.0639,0,-0.0755,-0.0758,-0.0766,-0.0767,-0.0767,-0.0767,-0.0763,-0.0755,-0.0739,-0.0731,-0.0715,-0.0699,-0.0683,-0.0667,-0.065,-0.0647,-0.0639,-0.063,-0.063,-0.0601,-0.0593,-0.0507,-0.0496,-0.0641,-0.0641,-0.0641,-0.0641,0,-0.0772,-0.0774,-0.0782,-0.0782,-0.0778,-0.0782,-0.0778,-0.0765,-0.0764,-0.0749,-0.0753,-0.0726,-0.0723,-0.0699,-0.0673,-0.0665,-0.0661,-0.0647,-0.0624,-0.0624,-0.0519,-0.0509,-0.0641,-0.0641,-0.0641,-0.0641,-0.0641,0,-0.0786,-0.0793,-0.0794,-0.08,-0.0813,-0.0801,-0.0811,-0.0804,-0.0796,-0.0807,-0.0771,-0.0782,-0.0731,-0.0718,-0.069,-0.0662,-0.0674,-0.0628,-0.0625,-0.0525,-0.0515,-0.0628,-0.0627,-0.0642,-0.0642,-0.0642,-0.0642,0,-0.0806,-0.0803,-0.0817,-0.0821,-0.0825,-0.0835,-0.084,-0.0845,-0.0834,-0.0851,-0.085,-0.0829,-0.0797,-0.0745,-0.0713,-0.0689,-0.066,-0.065,-0.0544,-0.0526,-0.0626,-0.0625,-0.0628,-0.0627,-0.0626,-0.0626,-0.0625,0,-0.0816,-0.0825,-0.0842,-0.0854,-0.0858,-0.0869,-0.0878,-0.0868,-0.0879,-0.089,-0.0906,-0.0874,-0.0859,-0.0792,-0.0691,-0.0621,-0.0649,-0.0518,-0.0473,-0.0626,-0.0622,-0.0622,-0.0622,-0.0351,-0.0349,-0.0346,-0.0345,0,-0.0837,-0.0845,-0.0858,-0.0886,-0.0902,-0.0916,-0.0932,-0.0951,-0.0949,-0.0954,-0.0998,-0.0987,-0.0882,-0.0724,-0.0592,-0.0548,-0.0511,-0.0475,-0.0649,-0.0375,-0.0368,-0.0364,-0.0372,-0.0326,-0.0328,-0.0329,-0.033,-0.0331,-0.0853,-0.0871,-0.0892,-0.0919,-0.0936,-0.0964,-0.0985,-0.0931,-0.0939,-0.085,-0.0938,-0.0795,-0.0723,-0.042,-0.0397,-0.0353,-0.0408,-0.0354,-0.0359,-0.0366,-0.0332,-0.0324,-0.0269,-0.027,-0.0272,-0.0273,-0.0274,0,-0.0844,-0.0891,-0.0921,-0.0952,-0.0941,-0.0979,-0.1018,-0.0946,-0.0878,-0.0737,-0.0648,-0.0471,-0.0277,-0.0234,-0.0138,-0.0156,-0.0151,-0.0144,-0.0105,-0.0122,-0.0138,-0.0092,0.0035,0.0035,0.0035,0.0035,0,0,-0.0845,-0.0866,-0.0884,-0.0911,-0.0955,-0.0925,-0.0948,-0.0818,-0.0682,-0.0483,-0.0319,-0.008,-0.0169,0.0009,0.0003,0.0016,-0.0061,0.0023,-0.0213,-0.0182,-0.0198,-0.0237,-0.0182,0,0,0,0,0]}],[{"header":{"parameterUnit":"m.s-1","parameterCategory":2,"la1":30.2991,"la2":30.254,"lo1":-89.0895,"lo2":-89.0444,"dy":0.0017,"dx":0.0017,"nx":28,"ny":28,"refTime":"2024-02-17T03:00:00:Z","depth":"4","parameterNumber":2,"parameterNumberName":"U-component_of_CURRENTS"},"data":[0,0,0,0,0,0,0,0,0,0,0,0,0,0,0,0,0,0,0,0,0,0,0,0,0,0,0,0,0,0,0,0,0,0,0,0,0,0,0,0,0,0,0,0,0,0,0,0,0,0,0,0,0,0,0,0,0,0,-0.0965,-0.0965,0,-0.0983,-0.0983,-0.0983,-0.1006,-0.1006,-0.1006,-0.1007,-0.1061,-0.1062,-0.1063,0,0,0,0,0,0,0,0,0,0,0,0,0,-0.0958,-0.0958,-0.0965,-0.0965,-0.0965,-0.0983,-0.0983,-0.0983,-0.1006,-0.1006,-0.1006,-0.1007,-0.106,-0.1062,-0.1063,0,0,0,0,0,0,0,0,0,0,0,0,0,-0.0967,-0.0958,-0.0965,-0.0979,-0.098,-0.0983,-0.0983,-0.0983,-0.1005,-0.1006,-0.1007,-0.1007,-0.106,-0.1062,-0.1063,-0.1062,0,0,-0.1068,-0.1069,0,0,0,0,0,0,0,0,-0.0966,-0.0967,-0.0976,-0.0978,-0.0979,-0.0993,-0.1,-0.1011,-0.1005,-0.0996,-0.1007,-0.1007,-0.1041,-0.1044,-0.1046,-0.1065,-0.1067,-0.1068,-0.1069,-0.107,-0.1071,0,0,0,0,0,0,0,-0.0965,-0.0966,-0.0972,-0.0977,-0.0978,-0.0987,-0.0988,-0.1002,-0.1016,-0.0997,-0.0998,-0.1,-0.1042,-0.1044,-0.1047,-0.1068,-0.1068,-0.107,-0.1071,-0.1072,-0.1127,-0.1127,0,0,0,0,0,0,-0.0962,-0.0966,-0.0971,-0.0972,-0.0974,-0.0986,-0.0988,-0.0988,-0.1015,-0.1019,-0.1,-0.1001,-0.1041,-0.1045,-0.1049,-0.1085,-0.107,-0.1072,-0.1073,-0.1126,-0.1127,-0.1127,0,0,0,0,0,0,-0.0962,-0.0963,-0.0971,-0.097,-0.0971,-0.0986,-0.0985,-0.0988,-0.1007,-0.1017,-0.1022,-0.1018,-0.1042,-0.1047,-0.1072,-0.1086,-0.1072,-0.1074,-0.1126,-0.1127,-0.1127,-0.1134,0,0,0,0,0,0,-0.0962,-0.0962,-0.097,-0.0969,-0.0971,-0.0982,-0.0985,-0.0988,-0.1006,-0.1009,-0.1034,-0.1038,-0.1042,-0.1069,-0.1073,-0.1088,-0.1075,-0.1125,-0.1126,-0.1127,-0.1133,-0.1135,-0.1136,0,0,0,0,0,-0.0961,-0.0966,-0.097,-0.0972,-0.0978,-0.0982,-0.0984,-0.0996,-0.1007,-0.1016,-0.1031,-0.1039,-0.1078,-0.1071,-0.1076,-0.1091,-0.1125,-0.1126,-0.1127,-0.1133,-0.1135,-0.1136,0,0,0,0,0,0,-0.097,-0.0969,-0.0974,-0.0979,-0.0986,-0.0986,-0.0998,-0.1006,-0.1024,-0.1033,-0.1044,-0.1049,-0.1076,-0.1083,-0.1074,-0.111,-0.1103,-0.1105,-0.1106,-0.1108,-0.1109,-0.1102,-0.1077,0,0,0,0,0,-0.0974,-0.0978,-0.0978,-0.0986,-0.099,-0.0998,-0.1005,-0.1013,-0.1024,-0.1033,-0.105,-0.1067,-0.1081,-0.1094,-0.1106,-0.1127,-0.1116,-0.1141,-0.1142,-0.1143,-0.1141,-0.1135,-0.1135,-0.1131,-0.1131,-0.1131,0,0,-0.0981,-0.0981,-0.0985,-0.0989,-0.0995,-0.1001,-0.1004,-0.1018,-0.1029,-0.1036,-0.1064,-0.1075,-0.1087,-0.1107,-0.112,-0.1117,-0.1137,-0.1145,-0.1146,-0.1142,-0.1136,-0.1136,-0.1136,-0.1132,-0.1132,-0.1132,0,0,-0.0988,-0.0996,-0.0999,-0.1004,-0.1014,-0.1017,-0.1025,-0.1035,-0.1048,-0.1069,-0.1076,-0.1093,-0.1121,-0.1125,-0.1132,-0.115,-0.1145,-0.1163,-0.1167,-0.1162,-0.1162,-0.1162,-0.1139,-0.1137,-0.1165,-0.1165,-0.1165,0,-0.1,-0.0999,-0.1003,-0.1007,-0.1013,-0.1026,-0.1033,-0.1045,-0.1064,-0.1072,-0.1083,-0.1112,-0.1126,-0.1138,-0.1146,-0.1154,-0.1145,-0.1159,-0.1163,-0.1163,-0.1163,-0.1139,-0.1136,-0.1165,-0.1165,-0.1165,-0.1165,0,-0.1001,-0.1009,-0.1013,-0.102,-0.1029,-0.1038,-0.1049,-0.1066,-0.1085,-0.1092,-0.1116,-0.1128,-0.1143,-0.1154,-0.1158,-0.1167,-0.1158,-0.1164,-0.1155,-0.1163,-0.1138,-0.1135,-0.1166,-0.1166,-0.1166,-0.1166,0,0,-0.1002,-0.1012,-0.1015,-0.102,-0.1036,-0.104,-0.1062,-0.1075,-0.1086,-0.111,-0.112,-0.1145,-0.1151,-0.1158,-0.1166,-0.1166,-0.1156,-0.1168,-0.1168,-0.114,-0.1133,-0.107,-0.1061,-0.1166,-0.1166,-0.1166,-0.1112,0,-0.1003,-0.1009,-0.1016,-0.103,-0.1033,-0.105,-0.1065,-0.1082,-0.1099,-0.1113,-0.1127,-0.1142,-0.1153,-0.1162,-0.1164,-0.1162,-0.1151,-0.117,-0.1134,-0.1132,-0.1072,-0.1056,-0.1165,-0.111,-0.1109,-0.1108,-0.1108,0,-0.0996,-0.1,-0.1011,-0.1026,-0.103,-0.1045,-0.1065,-0.1079,-0.1099,-0.1112,-0.1127,-0.1138,-0.1145,-0.1154,-0.1143,-0.1156,-0.1144,-0.1137,-0.1135,-0.1072,-0.1065,-0.1103,-0.1103,-0.1103,-0.1104,-0.1104,-0.1104,0,-0.0976,-0.0995,-0.1003,-0.1009,-0.1029,-0.1043,-0.1059,-0.1081,-0.1089,-0.1111,-0.1117,-0.1129,-0.1135,-0.1128,-0.1124,-0.1134,-0.1102,-0.1111,-0.1036,-0.1031,-0.1102,-0.1102,-0.1092,-0.1092,-0.1092,-0.1092,-0.1092,0,-0.0956,-0.0966,-0.0998,-0.0999,-0.1013,-0.1034,-0.1049,-0.1066,-0.1085,-0.1083,-0.1115,-0.1107,-0.1132,-0.1122,-0.1113,-0.1059,-0.109,-0.1024,-0.1011,-0.1105,-0.1107,-0.1099,-0.11,-0.109,-0.109,-0.1091,-0.1091,0,-0.0925,-0.0947,-0.096,-0.0991,-0.1002,-0.1013,-0.104,-0.1043,-0.1071,-0.1068,-0.1074,-0.1092,-0.1082,-0.1092,-0.1075,-0.1034,-0.0997,-0.0971,-0.1056,-0.1052,-0.0929,-0.0932,-0.0867,-0.0865,-0.0862,-0.0861,-0.0859,0,-0.0904,-0.0909,-0.095,-0.0959,-0.0975,-0.0995,-0.1,-0.1031,-0.1028,-0.1043,-0.1029,-0.1039,-0.1045,-0.0953,-0.0985,-0.0949,-0.0945,-0.0899,-0.0923,-0.091,-0.0905,-0.0912,-0.0917,-0.0855,-0.0855,-0.0854,-0.0854,0,-0.0866,-0.0894,-0.0904,-0.0923,-0.0937,-0.0944,-0.0955,-0.0942,-0.0962,-0.1,-0.0942,-0.0919,-0.0908,-0.0898,-0.0882,-0.086,-0.0914,-0.0875,-0.088,-0.0903,-0.0895,-0.0894,-0.0902,-0.0846,-0.0847,-0.0847,-0.0848,0,-0.0844,-0.0846,-0.0866,-0.0872,-0.0893,-0.0876,-0.089,-0.0865,-0.0862,-0.0874,-0.0851,-0.0863,-0.089,-0.085,-0.0833,-0.0812,-0.0803,-0.0752,-0.0764,-0.0773,-0.0771,-0.075,-0.0631,0,0,0,0,0,-0.0811,-0.0799,-0.0807,-0.081,-0.083,-0.0835,-0.0847,-0.0859,-0.0876,-0.0806,-0.0822,-0.0803,-0.0767,-0.0776,-0.0738,-0.0818,-0.0827,-0.077,-0.078,-0.0802,-0.0811,-0.0821,0,0,0,0,0,0,-0.0787,-0.0793,-0.0785,-0.0752,-0.0742,-0.0749,-0.0752,-0.0768,-0.0726,-0.0748,-0.0737,-0.0746,-0.0741,-0.0788,-0.0724,-0.0728,-0.0711,-0.0783,-0.078,-0.0796,-0.0805,-0.0812,-0.0826,0,0,0,0,0]},{"header":{"parameterUnit":"m.s-1","parameterCategory":2,"la1":30.2991,"la2":30.254,"lo1":-89.0895,"lo2":-89.0444,"dy":0.0017,"dx":0.0017,"nx":28,"ny":28,"refTime":"2024-02-17T03:00:00:Z","depth":"4","parameterNumber":3,"parameterNumberName":"V-component_of_CURRENTS"},"data":[0,0,0,0,0,0,0,0,0,0,0,0,0,0,0,0,0,0,0,0,0,0,0,0,0,0,0,0,0,0,0,0,0,0,0,0,0,0,0,0,0,0,0,0,0,0,0,0,0,0,0,0,0,0,0,0,0,0,-0.0017,-0.0016,0,-0.0,-0.0,0.0,0.001,0.001,0.001,0.0011,0.0036,0.0036,0.0037,0,0,0,0,0,0,0,0,0,0,0,0,0,-0.0027,-0.0027,-0.0017,-0.0016,-0.0016,-0.0,-0.0,0.0,0.001,0.001,0.001,0.0011,0.0035,0.0036,0.0037,0,0,0,0,0,0,0,0,0,0,0,0,0,-0.0018,-0.0027,-0.0017,-0.0009,-0.0008,-0.0,-0.0,0.0,0.001,0.001,0.001,0.0011,0.0035,0.0036,0.0037,0.004,0,0,0.004,0.004,0,0,0,0,0,0,0,0,-0.0019,-0.0018,-0.001,-0.0009,-0.0008,0.0003,0.0005,0.0014,0.001,0.0003,0.0011,0.0011,0.0026,0.0027,0.003,0.0041,0.0042,0.004,0.004,0.0041,0.0041,0,0,0,0,0,0,0,-0.0019,-0.0019,-0.001,-0.001,-0.0009,-0.0002,-0.0001,0.0007,0.0014,0.0004,0.0005,0.0007,0.0026,0.0029,0.003,0.0043,0.004,0.0041,0.0041,0.0041,0.0033,0.0032,0,0,0,0,0,0,-0.0022,-0.0019,-0.0011,-0.001,-0.0013,-0.0002,-0.0001,-0.0001,0.0013,0.0016,0.0007,0.0007,0.0027,0.0029,0.0031,0.002,0.0041,0.0042,0.0042,0.0034,0.0033,0.0032,0,0,0,0,0,0,-0.0022,-0.0021,-0.0011,-0.0014,-0.0012,-0.0002,-0.0002,-0.0001,-0.0001,0.0015,0.0018,0.0004,0.0027,0.003,0.0029,0.0021,0.0042,0.0043,0.0035,0.0034,0.0033,0.0007,0,0,0,0,0,0,-0.0023,-0.0022,-0.0025,-0.0014,-0.0012,-0.001,-0.0002,-0.0,0.0001,0.0001,0.0014,0.0017,0.0028,0.0027,0.003,0.0023,0.0043,0.0036,0.0034,0.0033,0.0009,0.0005,0.0002,0,0,0,0,0,-0.0023,-0.0026,-0.0026,-0.0025,-0.0017,-0.0011,-0.0009,-0.0002,0.0,-0.0001,0.0002,0.0016,0.002,0.0027,0.003,0.0024,0.0036,0.0035,0.0033,0.001,0.0006,0.0002,0,0,0,0,0,0,-0.0032,-0.0025,-0.0024,-0.0025,-0.0021,-0.0009,-0.001,-0.0005,-0.0004,-0.0005,0.0009,0.0012,0.0007,0.0016,0.0024,0.0015,0.003,0.0028,0.0011,0.0007,0.0004,0.0006,0.0044,0,0,0,0,0,-0.0036,-0.0038,-0.003,-0.0032,-0.0031,-0.0022,-0.002,-0.0016,-0.0011,-0.001,-0.0003,0.0002,0.0002,0.0005,0.0008,0.0007,0.0026,0.0003,-0.0001,-0.0004,-0.0001,0.0009,0.0008,0.0027,0.0027,0.0027,0,0,-0.004,-0.0037,-0.0038,-0.0034,-0.0031,-0.0032,-0.0021,-0.002,-0.0023,-0.0008,-0.0013,-0.001,-0.0002,-0.0007,-0.0008,0.0001,0.0003,-0.0006,-0.0008,-0.0004,0.0007,0.0006,0.0004,0.0025,0.0026,0.0026,0,0,-0.0048,-0.0047,-0.0052,-0.005,-0.0047,-0.0042,-0.0044,-0.0037,-0.0036,-0.0041,-0.0034,-0.0036,-0.0032,-0.0028,-0.0026,-0.0046,-0.0018,-0.0048,-0.0059,-0.0049,-0.005,-0.0051,-0.0017,-0.0015,-0.0047,-0.0047,-0.0047,0,-0.0054,-0.0057,-0.0052,-0.0055,-0.0055,-0.0048,-0.0053,-0.0052,-0.0047,-0.0047,-0.0047,-0.0047,-0.0042,-0.0045,-0.0055,-0.0053,-0.0035,-0.0043,-0.0052,-0.0053,-0.0053,-0.0019,-0.0016,-0.0049,-0.0049,-0.0048,-0.0048,0,-0.0063,-0.0068,-0.007,-0.0073,-0.0073,-0.0076,-0.0073,-0.0076,-0.0076,-0.0072,-0.0078,-0.0075,-0.0072,-0.0076,-0.0072,-0.0075,-0.0056,-0.0059,-0.0039,-0.0057,-0.0019,-0.0015,-0.0051,-0.005,-0.005,-0.0049,0,0,-0.0073,-0.0076,-0.0078,-0.0082,-0.0083,-0.0083,-0.0091,-0.0091,-0.0093,-0.0096,-0.0095,-0.0104,-0.0099,-0.0097,-0.0092,-0.0086,-0.0073,-0.0076,-0.0075,-0.0037,-0.0032,-0.0004,0.0003,-0.0078,-0.0078,-0.0078,-0.0,0,-0.0083,-0.0092,-0.0092,-0.0102,-0.0105,-0.0103,-0.0108,-0.0109,-0.0108,-0.0106,-0.0104,-0.0105,-0.0108,-0.0108,-0.0104,-0.0082,-0.0067,-0.0093,-0.0026,-0.0023,0.0008,0.0006,-0.0077,0.0002,0.0003,0.0004,0.0004,0,-0.0092,-0.0096,-0.0108,-0.0112,-0.0113,-0.0122,-0.0125,-0.0128,-0.0124,-0.0122,-0.0123,-0.0116,-0.0109,-0.0111,-0.0075,-0.0091,-0.0065,-0.0046,-0.0042,-0.0005,0.0011,0.002,0.0011,0.0011,0.001,0.001,0.0009,0,-0.0097,-0.0107,-0.0117,-0.012,-0.0124,-0.0133,-0.0137,-0.0137,-0.0135,-0.0133,-0.0127,-0.0118,-0.0108,-0.0086,-0.0048,-0.0062,0.0003,-0.0009,0.0047,0.0051,0.0015,0.0015,0.0019,0.0019,0.0019,0.0019,0.0019,0,-0.0104,-0.0111,-0.0123,-0.0128,-0.014,-0.0142,-0.0151,-0.0152,-0.0149,-0.0139,-0.0138,-0.0119,-0.0104,-0.0065,-0.0038,0.0026,0.0015,0.0053,0.0069,0.0004,0.0001,0.0019,0.0018,0.0022,0.0021,0.0021,0.002,0,-0.0104,-0.0112,-0.0123,-0.0136,-0.0143,-0.0152,-0.0162,-0.0161,-0.0159,-0.0146,-0.0144,-0.0114,-0.0074,-0.0041,0.0011,0.0049,0.01,0.0125,0.0076,0.0088,0.0141,0.0137,0.0195,0.0196,0.0198,0.0199,0.02,0,-0.0101,-0.0109,-0.013,-0.0136,-0.0145,-0.0159,-0.0164,-0.0169,-0.0163,-0.0133,-0.0119,-0.0083,-0.0062,0.0048,0.007,0.0137,0.0139,0.0191,0.0139,0.0147,0.0157,0.0151,0.0146,0.0202,0.0202,0.0202,0.0203,0,-0.0096,-0.0108,-0.0117,-0.0131,-0.0144,-0.015,-0.0157,-0.0153,-0.0144,-0.0144,-0.0083,-0.0034,0.0018,0.0066,0.012,0.0164,0.0168,0.0205,0.0201,0.0153,0.0156,0.0164,0.0157,0.0207,0.0207,0.0206,0.0206,0,-0.009,-0.0096,-0.011,-0.0118,-0.0132,-0.013,-0.014,-0.0122,-0.0114,-0.0087,-0.0059,-0.0014,0.001,0.0083,0.0136,0.0176,0.0175,0.0207,0.0203,0.0199,0.0165,0.0168,0.0244,0,0,0,0,0,-0.008,-0.0082,-0.0092,-0.01,-0.0112,-0.0116,-0.0124,-0.0129,-0.0124,-0.0077,-0.0069,-0.0021,0.0061,0.0096,0.0137,0.014,0.017,0.0194,0.0203,0.0233,0.0227,0.0188,0,0,0,0,0,0,-0.0072,-0.0082,-0.0085,-0.0079,-0.0079,-0.0087,-0.0091,-0.0091,-0.0064,-0.0054,-0.0022,0.0013,0.007,0.0026,0.0143,0.0155,0.0177,0.0223,0.0226,0.0236,0.0231,0.0227,0.0184,0,0,0,0,0]}]]